Reflectivity
-20 -20 -20 -20 -20 -20 -20 -20 -20 -20 -20 -1 -20 -20 -20 -20 -20 -20 -20 -20 -20 -20 -20 -20 -20 -20 -20 -20 -20 -20 -13 13 -20 -20 -20 -20 -20 -20 -20 -20 -20 -20 -20 -20
-20 -20 -20 -20 -20 -20 -20 -20 -20 -20 -20 18 -13 -20 -20 -20 -20 -20 -20 -20 -20 -20 -20 -20 -20 -20 -20 -20 -20 -19 -20 -20 -20 7 22 11 -9 -20 -20 -20 -20 -20 -20 -20
-20 -20 -20 -20 -20 -20 -20 -20 -20 -20 -18 -5 -20 -20 -20 -20 -20 -20 -20 -20 -20 -20 -20 -20 -20 -20 -20 -20 -20 -20 -20 -17 -20 21 16 7 -19 -20 -20 -20 -20 -20 -20 -20
-20 -20 -20 -20 -20 -20 -20 -20 -20 -20 -18 -20 -20 -20 -20 -20 -20 -20 -20 -20 -20 -20 -20 -20 -20 -20 -20 -20 -20 -20 -20 5 12 -13 -11 10 -20 -20 -14 -7 -20 -20 -20 -20
-20 -20 -20 -20 -20 -20 -20 -20 -20 -20 -20 -20 -20 -20 -20 -8 -20 -20 -20 -20 -20 -20 -20 -20 -20 -20 -20 -20 -20 -20 -20 -20 18 -6 25 10 -20 -20 -20 -20 -20 -20 -20 -20
-20 -20 -20 -20 -20 -20 -20 -20 -20 -20 -20 -20 -20 -19 -4 -20 -20 -20 -20 -20 -20 -20 -20 -20 -20 -20 -20 -20 -20 -20 -20 -20 8 -6 20 -20 -20 -20 -20 -20 -20 -20 -20 -20
-16 -14 -19 -20 -20 -20 -20 0 -20 -20 -20 -20 -20 -20 -20 -20 -20 -20 -20 -20 -20 -20 -20 -20 -20 -20 -20 -20 -20 -20 -20 -20 -12 21 8 -20 -18 -20 -20 -20 -20 -20 -20 -20
-8 -20 -15 -20 -20 -20 -9 -10 -20 -20 -20 -20 -20 -20 -20 -20 -20 -20 -20 -20 -20 -20 -20 -20 -20 -20 -20 -20 -20 -20 -20 -20 -15 -11 -20 -20 -20 -20 -20 -20 -20 -20 -20 -20
-20 -20 -20 -15 -20 -20 -20 7 -18 16 -20 -20 -20 -12 -20 -20 -20 -20 -20 -20 -20 -20 -20 -20 -20 -20 -20 -20 -20 -20 -20 -20 -18 -20 -20 -20 -20 -20 -20 -20 -20 -20 -20 -20
-17 -20 -20 -20 -11 -15 -14 -20 -16 -19 -20 -16 -20 -20 -20 -20 -20 -20 -20 -20 -20 -20 -20 -20 -20 -20 -20 -20 -20 -20 -20 -20 -20 -20 -20 -20 -20 -20 -20 -20 -20 -20 -20 -20
-20 -20 -20 -10 -20 -20 -20 -15 12 -18 -1 -20 -20 -20 -20 -20 -20 -20 -20 -20 -20 -20 -20 -20 -20 -20 -20 -20 -20 -20 -20 -20 -20 -20 -20 -20 -20 -20 -20 -20 -20 -20 -20 -20
-12 -19 -20 -10 -20 -20 -20 -19 -12 -12 -20 -20 -20 -20 -20 -20 -20 -20 -20 -20 -20 -20 -20 -20 -20 -20 -20 -20 -20 -20 -20 -20 -20 -20 -20 -20 -20 -20 -20 -20 -20 -20 -20 -20
-20 -20 -20 -20 -20 -20 -20 -20 -20 -20 -20 -20 -20 -20 -20 -20 -20 -20 -20 -20 -20 -20 -20 -20 -20 -20 -20 -20 -20 -20 -20 -20 -20 -20 -19 -20 -20 -20 -20 -13 -20 -20 -20 -20
-20 -20 -20 -20 -6 -16 -20 -20 -20 -20 -20 -20 -20 -20 -20 -20 -20 -20 -20 -20 -20 -20 -20 -20 -19 -20 -20 -18 -18 -20 -20 -20 -16 0 1 -15 -20 -20 3 3 -16 -6 -20 -20
-20 -20 -20 -19 -20 -20 -20 -20 -20 -20 -20 -20 -20 -20 -20 -20 -20 -20 -20 -20 -20 -20 -20 -20 -11 -20 -20 -20 -20 -20 -20 -20 -20 -20 -0 -18 -14 5 -20 -20 3 2 -13 -20
-20 -20 -20 -20 -20 -20 -20 -20 -20 -20 -20 -20 -20 -20 -20 -20 -20 -20 -20 -20 -20 -20 -20 -20 -20 -20 -20 -6 -20 -18 -17 -20 -20 -20 -20 -14 -3 3 2 -1 -20 1 -17 -20
-20 -20 -20 -20 -20 -20 -20 -20 -20 -20 -20 -20 -20 -20 -20 -20 -20 -20 -20 -20 -20 -20 -20 -20 -20 -20 -20 -20 -20 -20 -3 -20 -20 -20 -8 -9 -1 2 -19 -20 -4 -19 -19 -20
-20 -20 -20 -20 -20 -20 -20 -20 -20 -20 -20 -20 -20 -20 -20 -20 -20 -20 -20 -20 -20 -20 -20 -20 -14 -20 -20 -20 -20 -20 -20 -20 -18 -7 -1 -12 -10 -14 -2 -0 -20 -6 -3 -7
-20 -20 -20 -20 -20 -20 -20 -20 -20 -20 -20 -20 -20 -20 -20 -20 -20 -20 -20 -20 -12 -20 -12 -20 -1 -14 -20 -20 -20 -20 -11 4 -1 -17 -1 -11 -11 3 -15 -14 8 -10 -2 -12
-20 -20 -20 -20 -20 -20 -20 -20 -20 -20 -20 -20 -20 -20 -20 -20 -20 -20 -20 -20 -20 3 -10 -8 6 -20 -20 -20 -20 -20 -9 -16 6 -17 4 8 -7 -15 7 2 3 -20 -20 -18
-20 -20 -20 -20 -20 -20 -20 -20 -20 -20 -20 -20 -20 -20 -20 -20 -20 -20 -20 -20 -20 -12 3 6 -4 -18 -20 -20 -20 -20 -20 -11 -20 -17 -11 4 11 -20 -20 -20 -10 6 1 -2
-20 -20 -20 -20 -20 -20 -20 -20 -20 -20 -20 -20 -20 -20 -20 -20 -20 -20 -20 -10 -14 6 -0 -0 -4 -20 -20 -20 -20 -20 -20 -6 1 -9 -4 4 -2 12 -20 3 -19 -17 1 -9
-20 -20 -20 -20 -20 -20 -20 -20 -20 -20 -20 -20 -20 -20 -20 -20 -20 -11 -19 -20 -8 22 -15 -9 10 3 -4 -16 -20 -20 -20 -18 -1 3 -20 -13 -8 5 6 5 -20 -4 2 -12
-20 -20 -20 -20 -20 -20 -20 -20 -20 -20 -20 -20 -20 -20 -20 0 -15 -20 1 -20 -14 6 -4 3 8 10 3 -20 -20 -20 -20 -16 -20 -18 0 -9 -16 3 -14 -4 2 3 5 -7
-20 -20 -20 -20 -20 -20 -20 -20 -6 -17 -19 -20 -20 -20 -7 7 3 -16 -2 -14 9 8 -11 -20 -20 -20 -20 -20 -20 -20 -20 -20 -20 -5 -20 -13 -20 -12 7 -9 4 2 5 -5
-20 -20 -20 -20 -20 -20 -20 -11 -20 -10 -16 -20 -20 -20 -19 -20 -0 9 8 6 -8 1 -7 -12 -14 -20 2 5 -19 -20 -8 2 -19 -20 -10 -14 -20 -20 -15 -10 -4 3 -15 -10
-20 -20 -20 -20 -3 5 -20 -20 6 16 -20 -20 -20 -20 -15 -3 -19 -0 -6 -6 -9 -20 -12 -7 -2 3 -5 -17 -15 -5 5 -18 -20 -20 -20 -20 -20 -20 -20 -20 -20 -20 -16 -7
Wind_Speed
7 8 7 9 11 11 12 11 8 10 13 8 8 10 15 13 13 11 9 11 12 12 12 10 10 9 10 9 8 8 9 6 7 4 4 5 3 3 5 6 6 6 7 7
3 3 9 12 14 14 15 14 9 12 13 6 14 12 12 10 10 11 13 13 13 14 12 11 12 11 12 11 11 4 8 9 9 9 4 5 4 5 5 5 5 6 6 6
2 10 10 2 3 3 5 7 9 5 9 11 9 9 11 7 9 12 12 13 13 12 11 10 11 12 13 14 15 10 10 7 6 7 5 6 5 6 8 6 6 6 6 5
2 5 2 4 13 11 9 7 7 9 6 7 10 13 12 9 9 11 12 12 12 10 10 10 12 12 12 14 16 18 15 5 6 4 6 8 3 4 8 6 5 6 5 5
0 3 9 10 5 6 5 10 11 6 8 11 13 10 5 9 10 9 9 10 10 11 11 12 12 13 15 16 17 17 18 10 9 4 7 6 5 6 7 5 5 4 5 7
3 2 4 1 8 6 8 8 8 9 9 9 12 6 7 14 12 11 12 11 12 13 13 13 12 14 15 15 15 16 14 10 9 9 7 5 5 6 4 4 4 4 4 5
4 4 7 9 4 3 4 2 7 4 8 9 7 4 9 10 9 12 12 14 14 13 12 12 13 13 14 15 15 13 11 10 9 8 10 7 4 4 4 4 3 4 3 4
4 4 7 2 2 2 6 8 3 4 4 5 7 9 10 10 11 13 14 15 14 14 12 12 13 12 12 13 12 12 10 9 8 8 7 6 5 5 5 5 6 5 5 5
9 6 8 1 5 7 3 5 4 5 6 6 7 10 10 10 11 12 14 13 14 13 13 14 12 12 12 12 10 9 9 11 9 9 8 5 5 5 4 5 3 4 5 6
4 8 9 6 4 11 5 1 4 3 4 9 8 8 10 10 11 12 12 14 12 15 16 13 13 12 11 11 10 10 9 9 9 7 6 5 4 4 4 3 3 3 4 4
7 11 10 3 7 6 5 4 2 4 7 6 7 9 11 11 12 12 13 12 14 14 13 14 14 12 12 10 10 8 9 8 8 5 6 5 6 4 3 4 3 1 2 2
8 4 3 4 4 1 2 2 4 3 5 7 9 11 12 11 12 13 14 14 13 14 14 14 14 13 11 8 5 5 5 5 5 4 3 4 3 3 6 4 3 3 2 2
7 4 4 3 4 1 3 4 4 4 6 9 10 10 13 12 12 13 14 15 15 15 14 14 14 12 10 3 2 1 3 5 4 5 4 3 3 4 4 2 9 6 7 8
5 5 4 2 2 5 4 1 4 4 7 8 11 10 12 11 13 13 14 14 15 15 12 11 14 10 6 7 2 1 3 5 2 4 3 2 3 3 4 4 4 3 9 8
6 2 4 1 6 4 4 1 5 7 9 9 9 10 10 12 13 13 13 14 13 14 14 13 12 13 13 4 3 5 6 3 1 1 2 1 3 3 3 4 4 4 2 2
6 6 6 3 2 2 2 4 7 8 9 10 9 7 9 11 12 13 12 9 9 12 14 10 7 8 9 8 6 5 6 6 3 1 2 3 2 2 3 4 4 3 3 2
7 6 4 3 1 3 5 6 7 8 7 8 6 6 10 10 9 10 11 9 8 10 12 9 9 7 6 6 5 6 2 2 2 1 3 1 2 3 3 3 4 4 3 3
7 7 7 3 2 4 4 5 3 4 5 5 4 4 5 6 10 12 12 11 11 11 11 10 8 5 5 6 4 3 2 1 2 3 2 2 2 2 4 4 4 4 3 1
8 7 5 3 4 4 3 4 4 3 5 6 5 8 8 9 10 10 10 14 13 13 10 4 5 5 6 5 3 1 2 3 3 4 4 3 3 3 4 4 4 2 3 3
6 5 6 5 5 2 5 5 4 6 7 6 4 7 10 8 5 12 10 11 13 12 9 6 5 6 5 4 5 2 2 3 4 5 5 4 3 4 3 5 5 5 4 3
3 2 3 2 4 4 5 6 5 7 8 4 6 9 10 11 11 10 11 10 12 7 6 6 6 5 6 7 6 4 4 4 5 5 5 5 4 4 4 4 5 5 3 3
2 3 3 4 5 5 5 5 7 6 7 8 5 6 9 12 11 8 10 12 8 7 4 5 5 7 6 1 2 2 3 4 4 4 4 4 4 4 2 3 5 4 4 4
3 4 5 4 5 7 6 5 6 8 10 9 9 8 9 7 6 8 11 7 8 8 7 6 6 6 6 3 3 4 4 5 5 5 5 4 4 4 4 4 4 4 4 4
5 6 6 5 3 4 9 10 8 8 10 9 8 8 7 7 6 5 7 9 14 9 6 5 5 7 7 4 4 5 6 6 6 6 6 7 6 6 5 5 5 4 4 5
4 5 5 5 8 8 10 10 6 5 4 4 4 7 7 4 5 8 7 8 12 8 6 7 9 9 6 6 7 7 7 6 5 5 5 5 4 5 5 5 4 5 4 5
7 6 6 6 7 8 8 6 6 6 4 5 6 6 7 5 7 7 7 8 9 9 7 6 6 7 7 8 8 9 8 7 6 6 6 5 5 5 5 6 5 5 5 5
6 6 6 6 6 6 7 7 5 4 2 4 8 6 7 7 8 9 9 7 7 7 7 6 6 8 9 9 9 10 9 7 8 6 5 5 5 5 4 4 4 4 4 4
Wind_Direction
331 319 310 302 293 286 274 264 249 265 266 315 12 15 48 28 12 4 8 4 355 330 329 332 323 322 315 318 304 354 313 291 286 231 225 252 359 354 325 314 318 332 326 319
258 2 350 306 294 290 280 270 285 317 303 65 52 32 22 15 353 8 358 347 331 336 328 327 332 329 332 313 310 267 292 269 302 307 268 8 357 323 310 310 328 313 313 314
274 349 311 322 254 313 346 331 316 287 280 45 38 8 349 360 12 355 338 333 328 318 326 339 341 330 327 330 321 301 295 297 9 25 344 292 280 333 324 323 304 303 301 313
300 311 8 43 318 292 315 280 292 308 31 58 19 354 354 58 11 345 338 329 310 324 331 343 325 326 333 334 328 320 317 341 308 310 256 259 41 339 297 295 300 299 332 4
302 304 298 297 56 29 3 306 308 9 33 6 349 335 60 64 1 342 318 302 324 329 344 331 340 347 342 331 318 316 315 10 332 177 281 343 14 329 284 302 303 14 8 1
122 236 252 8 57 41 318 275 51 25 8 344 334 334 341 350 336 328 328 326 330 344 333 343 350 348 331 329 333 335 357 341 350 329 324 348 340 284 293 311 18 57 17 346
191 246 278 273 5 341 245 31 356 30 349 345 335 353 306 306 334 321 318 333 339 333 341 350 348 334 329 326 326 357 4 356 343 337 335 312 292 308 331 352 18 67 26 321
196 227 255 349 37 251 353 335 11 351 340 319 319 299 302 333 323 318 329 332 335 340 344 345 328 319 321 328 345 354 347 333 320 301 298 329 328 357 336 353 48 19 344 332
186 211 220 159 216 271 275 261 48 298 325 300 299 290 330 321 314 323 331 332 338 337 335 316 311 317 330 339 349 336 323 322 325 334 322 4 341 323 339 41 46 5 359 336
207 253 274 300 315 106 138 32 10 320 286 275 291 334 308 310 321 334 340 333 341 336 312 320 331 339 346 347 348 333 325 332 310 318 342 333 344 350 27 39 30 10 340 337
282 284 287 54 70 88 23 298 253 261 262 317 321 304 321 334 332 334 326 336 331 315 324 333 330 338 350 350 335 331 333 336 323 347 351 345 340 25 44 73 80 346 338 346
257 283 287 89 101 81 279 289 258 268 349 319 316 332 330 339 342 338 340 329 326 327 328 327 331 334 330 325 348 0 334 324 333 320 332 309 344 356 92 94 210 210 201 232
315 101 96 117 316 354 250 39 32 18 297 327 329 346 345 341 334 335 330 326 329 321 326 336 325 318 321 359 180 210 315 309 307 327 344 349 9 11 339 290 244 227 226 256
77 129 196 195 217 173 116 68 182 275 335 345 347 346 340 337 330 330 324 325 321 320 325 322 313 325 1 332 338 91 237 274 339 334 346 346 17 324 303 312 311 312 223 239
135 178 261 180 185 137 173 355 345 328 344 340 358 342 341 328 325 318 323 321 325 321 313 318 315 318 314 313 272 272 268 202 164 267 267 301 288 291 294 302 308 314 333 120
174 227 152 157 103 54 10 342 331 336 347 348 333 335 326 322 315 316 306 327 325 312 310 301 278 289 290 291 290 294 291 115 177 163 254 275 284 307 304 301 310 312 314 43
189 163 136 107 341 3 343 341 337 357 325 315 301 325 317 310 298 293 302 296 284 287 291 282 273 286 278 284 271 274 311 63 153 242 252 285 271 285 295 294 299 308 310 130
127 110 85 83 10 340 347 25 358 311 291 302 302 283 274 270 282 293 299 302 303 295 285 265 258 233 245 257 287 334 5 4 312 262 253 244 265 296 279 268 274 293 301 200
105 107 81 26 1 21 334 307 299 326 287 270 271 276 275 273 280 291 309 312 304 296 299 274 246 204 245 241 211 237 247 256 258 266 259 225 244 266 274 280 278 275 285 277
101 67 29 352 360 320 286 283 273 278 278 280 272 285 289 290 293 312 303 292 286 277 282 271 207 199 227 239 193 222 254 251 262 266 264 237 236 258 263 273 270 266 268 273
42 337 318 265 251 249 257 262 263 273 280 262 266 284 295 303 308 296 297 297 293 295 272 265 207 217 220 225 189 212 229 235 255 258 258 255 247 246 252 272 278 282 272 282
355 332 274 269 259 273 262 255 255 263 276 280 269 265 292 300 292 296 286 272 293 295 290 258 225 218 246 206 230 161 192 238 270 273 264 262 259 258 256 269 276 282 280 276
310 291 281 259 255 266 278 279 267 258 267 267 274 279 274 276 284 295 305 309 317 304 303 266 233 217 200 190 222 249 251 237 232 250 261 262 254 250 243 258 265 271 275 272
273 268 268 275 287 283 279 279 259 247 227 240 248 253 269 279 270 273 283 307 295 288 272 273 260 207 195 203 221 229 245 243 236 237 246 249 252 248 238 235 242 253 255 264
270 275 271 260 264 262 259 261 258 270 292 281 308 304 280 241 258 291 286 290 288 279 271 250 239 228 219 212 226 233 239 240 238 234 244 255 269 278 267 247 234 246 252 254
266 264 265 268 279 284 284 285 280 288 311 309 303 304 293 279 277 273 277 278 288 278 269 254 242 235 228 222 225 231 240 238 230 229 228 237 245 252 262 266 259 257 260 258
270 261 267 272 270 271 270 275 285 292 321 295 287 293 296 298 293 286 279 279 280 283 271 261 246 236 232 234 230 230 234 224 225 226 210 215 232 242 248 260 272 280 282 283